TimeCDT,TemperatureF,Dew PointF,Humidity,Sea Level PressureIn,VisibilityMPH,Wind Direction,Wind SpeedMPH,Gust SpeedMPH,PrecipitationIn,Events,Conditions,WindDirDegrees,DateUTC
12:12 AM,64.4,51.8,64,30.09,10.0,NE,5.8,-,N/A,,Clear,50,2012-09-01 05:12:00
12:32 AM,62.6,51.8,68,30.10,10.0,NE,4.6,-,N/A,,Clear,50,2012-09-01 05:32:00
12:53 AM,62.6,51.8,68,30.09,10.0,NE,4.6,-,N/A,,Clear,50,2012-09-01 05:53:00
1:12 AM,62.6,51.8,68,30.09,10.0,ENE,5.8,-,N/A,,Clear,60,2012-09-01 06:12:00
1:32 AM,60.8,51.8,72,30.09,10.0,ENE,5.8,-,N/A,,Clear,70,2012-09-01 06:32:00
1:53 AM,60.8,51.8,72,30.09,10.0,East,5.8,-,N/A,,Clear,80,2012-09-01 06:53:00
2:12 AM,60.8,51.8,72,30.08,10.0,East,4.6,-,N/A,,Clear,80,2012-09-01 07:12:00
2:32 AM,60.8,51.8,72,30.08,10.0,East,4.6,-,N/A,,Clear,80,2012-09-01 07:32:00
2:53 AM,60.8,51.8,72,30.08,10.0,ENE,3.5,-,N/A,,Clear,70,2012-09-01 07:53:00
3:12 AM,60.8,51.8,72,30.08,10.0,East,4.6,-,N/A,,Clear,80,2012-09-01 08:12:00
3:32 AM,60.8,51.8,72,30.08,10.0,ENE,4.6,-,N/A,,Clear,70,2012-09-01 08:32:00
3:53 AM,60.8,51.8,72,30.08,10.0,ENE,4.6,-,N/A,,Clear,60,2012-09-01 08:53:00
4:12 AM,60.8,51.8,72,30.07,10.0,ENE,5.8,-,N/A,,Clear,70,2012-09-01 09:12:00
4:32 AM,60.8,51.8,72,30.07,10.0,ENE,5.8,-,N/A,,Clear,60,2012-09-01 09:32:00
4:53 AM,60.8,51.8,72,30.08,10.0,NE,5.8,-,N/A,,Clear,50,2012-09-01 09:53:00
5:12 AM,60.8,51.8,72,30.07,10.0,NE,6.9,-,N/A,,Clear,40,2012-09-01 10:12:00
5:32 AM,60.8,51.8,72,30.07,10.0,ENE,5.8,-,N/A,,Clear,60,2012-09-01 10:32:00
5:53 AM,57.2,51.8,82,30.07,10.0,ENE,5.8,-,N/A,,Clear,60,2012-09-01 10:53:00
6:12 AM,57.2,51.8,82,30.08,10.0,ENE,5.8,-,N/A,,Clear,60,2012-09-01 11:12:00
6:33 AM,57.2,51.8,82,30.09,10.0,ENE,4.6,-,N/A,,Clear,60,2012-09-01 11:33:00
7:12 AM,57.2,51.8,82,30.10,10.0,ENE,5.8,-,N/A,,Clear,60,2012-09-01 12:12:00
7:33 AM,59.0,51.8,77,30.09,10.0,ENE,5.8,-,N/A,,Clear,70,2012-09-01 12:33:00
7:52 AM,60.8,51.8,72,30.09,10.0,ENE,4.6,-,N/A,,Clear,70,2012-09-01 12:52:00
8:12 AM,62.6,51.8,68,30.10,10.0,East,6.9,-,N/A,,Clear,80,2012-09-01 13:12:00
8:33 AM,64.4,53.6,68,30.10,10.0,ENE,5.8,-,N/A,,Clear,70,2012-09-01 13:33:00
8:52 AM,66.2,53.6,64,30.10,10.0,ENE,6.9,-,N/A,,Clear,70,2012-09-01 13:52:00
9:12 AM,68.0,55.4,64,30.10,10.0,East,5.8,-,N/A,,Clear,80,2012-09-01 14:12:00
9:33 AM,69.8,57.2,64,30.10,10.0,East,6.9,-,N/A,,Clear,90,2012-09-01 14:33:00
9:52 AM,71.6,57.2,60,30.10,10.0,East,6.9,-,N/A,,Clear,100,2012-09-01 14:52:00
10:12 AM,73.4,57.2,57,30.10,10.0,ESE,6.9,-,N/A,,Clear,110,2012-09-01 15:12:00
10:32 AM,75.2,59.0,57,30.10,10.0,East,6.9,-,N/A,,Clear,100,2012-09-01 15:32:00
10:52 AM,75.2,59.0,57,30.09,10.0,East,4.6,-,N/A,,Clear,100,2012-09-01 15:52:00
11:13 AM,77.0,60.8,57,30.09,10.0,ESE,8.1,-,N/A,,Clear,110,2012-09-01 16:13:00
11:53 AM,80.6,60.8,51,30.09,10.0,East,8.1,-,N/A,,Clear,80,2012-09-01 16:53:00
12:12 PM,80.6,60.8,51,30.08,10.0,ESE,5.8,-,N/A,,Clear,120,2012-09-01 17:12:00
12:32 PM,82.4,60.8,48,30.08,10.0,ESE,8.1,-,N/A,,Clear,110,2012-09-01 17:32:00
12:53 PM,84.2,60.8,45,30.08,10.0,ENE,10.4,-,N/A,,Clear,70,2012-09-01 17:53:00
1:12 PM,84.2,62.6,48,30.07,10.0,East,9.2,-,N/A,,Clear,90,2012-09-01 18:12:00
1:32 PM,84.2,62.6,48,30.06,10.0,ESE,9.2,-,N/A,,Clear,120,2012-09-01 18:32:00
1:53 PM,84.2,62.6,48,30.06,10.0,ENE,11.5,-,N/A,,Clear,70,2012-09-01 18:53:00
2:12 PM,84.2,60.8,45,30.05,10.0,ENE,13.8,18.4,N/A,,Clear,70,2012-09-01 19:12:00
2:32 PM,86.0,60.8,43,30.05,10.0,East,12.7,20.7,N/A,,Clear,90,2012-09-01 19:32:00
2:53 PM,86.0,60.8,43,30.04,10.0,East,12.7,-,N/A,,Clear,100,2012-09-01 19:53:00
3:12 PM,86.0,59.0,40,30.04,10.0,East,9.2,-,N/A,,Clear,80,2012-09-01 20:12:00
3:32 PM,86.0,57.2,37,30.03,10.0,ESE,12.7,17.3,N/A,,Clear,110,2012-09-01 20:32:00
3:53 PM,86.0,57.2,37,30.02,10.0,East,13.8,17.3,N/A,,Clear,100,2012-09-01 20:53:00
4:12 PM,86.0,55.4,35,30.02,10.0,ESE,9.2,16.1,N/A,,Clear,110,2012-09-01 21:12:00
4:32 PM,86.0,55.4,35,30.01,10.0,ESE,10.4,-,N/A,,Clear,110,2012-09-01 21:32:00
4:53 PM,86.0,53.6,33,30.01,10.0,East,11.5,16.1,N/A,,Clear,90,2012-09-01 21:53:00
5:12 PM,86.0,53.6,33,30.01,10.0,East,10.4,-,N/A,,Clear,100,2012-09-01 22:12:00
5:32 PM,84.2,53.6,35,30.01,10.0,ESE,11.5,-,N/A,,Clear,110,2012-09-01 22:32:00
5:52 PM,84.2,53.6,35,30.01,10.0,East,9.2,-,N/A,,Clear,100,2012-09-01 22:52:00
6:12 PM,84.2,53.6,35,30.00,10.0,East,6.9,-,N/A,,Clear,100,2012-09-01 23:12:00
6:33 PM,84.2,55.4,37,30.01,10.0,East,6.9,-,N/A,,Clear,100,2012-09-01 23:33:00
6:52 PM,82.4,55.4,39,30.01,10.0,East,9.2,-,N/A,,Clear,100,2012-09-01 23:52:00
7:12 PM,80.6,55.4,42,30.00,10.0,East,8.1,-,N/A,,Clear,90,2012-09-02 00:12:00
7:33 PM,77.0,55.4,47,30.00,10.0,East,5.8,-,N/A,,Clear,90,2012-09-02 00:33:00
7:52 PM,73.4,57.2,57,30.00,10.0,East,5.8,-,N/A,,Clear,80,2012-09-02 00:52:00
8:12 PM,69.8,55.4,60,30.00,10.0,East,6.9,-,N/A,,Clear,80,2012-09-02 01:12:00
8:33 PM,69.8,55.4,60,30.01,10.0,East,6.9,-,N/A,,Clear,90,2012-09-02 01:33:00
8:52 PM,68.0,55.4,64,30.01,10.0,East,5.8,-,N/A,,Clear,90,2012-09-02 01:52:00
9:12 PM,68.0,53.6,60,30.01,10.0,East,5.8,-,N/A,,Clear,90,2012-09-02 02:12:00
9:33 PM,69.8,53.6,56,30.02,10.0,East,6.9,-,N/A,,Clear,90,2012-09-02 02:33:00
9:52 PM,69.8,53.6,56,30.01,10.0,East,9.2,-,N/A,,Clear,90,2012-09-02 02:52:00
10:12 PM,68.0,53.6,60,30.01,10.0,East,8.1,-,N/A,,Clear,90,2012-09-02 03:12:00
10:32 PM,68.0,53.6,60,30.01,10.0,East,6.9,-,N/A,,Clear,100,2012-09-02 03:32:00
10:52 PM,69.8,53.6,56,30.01,10.0,East,10.4,-,N/A,,Clear,100,2012-09-02 03:52:00
11:13 PM,68.0,53.6,60,30.01,10.0,ESE,8.1,-,N/A,,Clear,110,2012-09-02 04:13:00
11:32 PM,66.2,53.6,64,30.01,10.0,ESE,6.9,-,N/A,,Clear,120,2012-09-02 04:32:00
11:52 PM,64.4,53.6,68,30.01,10.0,ESE,6.9,-,N/A,,Clear,120,2012-09-02 04:52:00